Monarch Pass, CO

6:31 AM MDT on July 28, 2017 (GMT -0600)
Monarch Pass

Weather History for KMYP - March, 2013

Change the Weather History Date:

Sunday, March 24, 2013

  Actual Average (KALS) Record (KALS)
Temperature  
Mean Temperature 0 °F -  
Max Temperature 5 °F 53 °F 72 °F (2012)
Min Temperature -5 °F 18 °F -4 °F (2013)
Degree Days  
Heating Degree Days 65    
Moisture  
Dew Point -6 °F    
Average Humidity 80    
Maximum Humidity 85    
Minimum Humidity 71    
Precipitation  
Precipitation 0.00 in - - ()
Sea Level Pressure  
Sea Level Pressure 29.93 in    
Wind  
Wind Speed 38 mph (West)    
Max Wind Speed 38 mph    
Max Gust Speed 47 mph    
Averages and records for this station are not official NWS values.
T = Trace of Precipitation, MM = Missing Value Source: NWS Daily Summary

Daily Weather History Graph

Daily Weather History Graph

Search for Another Location

Airport or City:

Trip Planner

Search our weather history database for the weather conditions in past years. The results will help you decide how hot, cold, wet, or windy it might be!

Date:

Astronomy

Mar. 24, 2013 Rise Set
Actual Time 7:01 AM MDT 7:20 PM MDT
Civil Twilight 6:35 AM MDT 7:47 PM MDT
Nautical Twilight 6:04 AM MDT 8:18 PM MDT
Astronomical Twilight 5:32 AM MDT 8:49 PM MDT
Moon 4:53 PM MDT (3/24) 5:11 AM MDT (3/24)
Length of Visible Light 13h 12m
Length of Day
12h 19m
Waxing Gibbous, 92% of the Moon is Illuminated
Mar 24
Waxing Gibbous
Mar 27
Full
Apr 2
Last Quarter
Apr 10
New
Apr 18
First Quarter

Hourly Weather History & Observations

Time (MDT) Temp. Windchill Dew Point Humidity Pressure Visibility Wind Dir Wind Speed Gust Speed Precip Events Conditions
12:19 AM -2.2 °F - -7.6 °F 78% 29.95 in - North - - N/A   Clear
12:39 AM -2.2 °F - -7.6 °F 78% 29.95 in - North - - N/A   Scattered Clouds
12:59 AM -4.0 °F - -7.6 °F 85% 29.95 in - North - - N/A   Clear
1:39 AM -4.0 °F - -7.6 °F 85% 29.94 in - North - - N/A   Clear
1:59 AM -4.0 °F - -9.4 °F 78% 29.94 in - North - - N/A   Scattered Clouds
2:19 AM -4.0 °F - -7.6 °F 85% 29.94 in - North - - N/A   Overcast
2:39 AM -4.0 °F - -9.4 °F 78% 29.93 in - North - - N/A   Overcast
2:59 AM -4.0 °F - -9.4 °F 78% 29.93 in - North - - N/A   Overcast
3:19 AM -4.0 °F - -9.4 °F 78% 29.92 in - North - - N/A   Overcast
3:39 AM -4.0 °F - -9.4 °F 78% 29.91 in - North - - N/A   Overcast
3:59 AM -4.0 °F - -9.4 °F 78% 29.90 in - North - - N/A   Overcast
4:19 AM -4.0 °F - -9.4 °F 78% 29.90 in - North - - N/A   Overcast
4:39 AM -4.0 °F - -9.4 °F 78% 29.89 in - North - - N/A   Overcast
4:59 AM -4.0 °F - -9.4 °F 78% 29.89 in - North - - N/A   Overcast
5:19 AM -4.0 °F - -9.4 °F 78% 29.89 in - North - - N/A   Overcast
5:39 AM -4.0 °F - -9.4 °F 78% 29.89 in - North - - N/A   Overcast
5:59 AM -4.0 °F - -9.4 °F 78% 29.89 in - North - - N/A   Overcast
6:19 AM -4.0 °F - -9.4 °F 78% 29.89 in - North - - N/A   Overcast
6:39 AM -4.0 °F - -9.4 °F 78% 29.89 in - North - - N/A   Overcast
6:59 AM -5.8 °F - -9.4 °F 84% 29.89 in - North - - N/A   Overcast
7:19 AM -5.8 °F - -9.4 °F 84% 29.89 in - North - - N/A   Overcast
7:39 AM -5.8 °F - -9.4 °F 84% 29.90 in - North - - N/A   Overcast
7:59 AM -5.8 °F - -9.4 °F 84% 29.90 in - North - - N/A   Overcast
8:19 AM -4.0 °F - -9.4 °F 78% 29.91 in - North - - N/A   Overcast
8:39 AM -4.0 °F - -9.4 °F 78% 29.91 in - North - - N/A   Overcast
8:59 AM -4.0 °F - -9.4 °F 78% 29.91 in - North - - N/A   Overcast
9:19 AM -4.0 °F - -7.6 °F 85% 29.91 in - North - - N/A   Overcast
9:39 AM -2.2 °F - -7.6 °F 78% 29.91 in - North - - N/A   Overcast
9:59 AM -0.4 °F - -5.8 °F 78% 29.91 in - North - - N/A   Overcast
10:19 AM -0.4 °F - -5.8 °F 78% 29.91 in - North - - N/A   Overcast
10:39 AM -0.4 °F - -5.8 °F 78% 29.91 in - North - - N/A   Overcast
10:59 AM -0.4 °F - -4.0 °F 85% 29.91 in - North - - N/A Thunderstorm Thunderstorm
11:19 AM -0.4 °F - -4.0 °F 85% 29.91 in - North - - N/A Thunderstorm Overcast
11:39 AM -0.4 °F - -4.0 °F 85% 29.90 in - North - - N/A Thunderstorm Thunderstorm
11:59 AM 1.4 °F - -4.0 °F 78% 29.91 in - North - - N/A Thunderstorm Thunderstorm
12:19 PM 1.4 °F - -4.0 °F 78% 29.91 in - North - - N/A Thunderstorm Thunderstorm
12:39 PM 1.4 °F - -4.0 °F 78% 29.90 in - North - - N/A Thunderstorm Thunderstorm
12:59 PM 1.4 °F - -4.0 °F 78% 29.90 in - North - - N/A Thunderstorm Thunderstorm
1:19 PM 1.4 °F - -2.2 °F 85% 29.90 in - North - - N/A Thunderstorm Thunderstorm
1:39 PM 3.2 °F - -2.2 °F 78% 29.89 in - North - - N/A Thunderstorm Thunderstorm
1:59 PM 3.2 °F - -0.4 °F 85% 29.89 in - North - - N/A Thunderstorm Thunderstorm
2:19 PM 3.2 °F - -0.4 °F 85% 29.89 in - North - - N/A Thunderstorm Thunderstorm
2:39 PM 3.2 °F - -0.4 °F 85% 29.88 in - North - - N/A Thunderstorm Thunderstorm
2:59 PM 3.2 °F - -0.4 °F 85% 29.89 in - North - - N/A Thunderstorm Thunderstorm
3:19 PM 3.2 °F - -0.4 °F 85% 29.89 in - North - - N/A Thunderstorm Thunderstorm
3:39 PM 3.2 °F - -0.4 °F 85% 29.89 in - North - - N/A Thunderstorm Thunderstorm
3:59 PM 3.2 °F - -0.4 °F 85% 29.90 in - North - - N/A Thunderstorm Thunderstorm
4:19 PM 3.2 °F - -0.4 °F 85% 29.90 in - North - - N/A Thunderstorm Thunderstorm
4:39 PM 3.2 °F - -0.4 °F 85% 29.90 in - North - - N/A   Unknown
4:59 PM 3.2 °F - -0.4 °F 85% 29.91 in - North - - N/A   Unknown
5:19 PM 3.2 °F - -0.4 °F 85% 29.92 in - North - - N/A   Unknown
5:39 PM 3.2 °F - -0.4 °F 85% 29.93 in - North - - N/A   Unknown
5:59 PM 5.0 °F -21.3 °F -0.4 °F 78% 29.92 in - West 38.0 mph 47.2 mph N/A Thunderstorm Thunderstorm
6:19 PM 3.2 °F - -0.4 °F 85% 29.93 in - North - - N/A   Unknown
6:39 PM 3.2 °F - -0.4 °F 85% 29.95 in - North - - N/A   Unknown
6:59 PM 3.2 °F - -0.4 °F 85% 29.96 in - North - - N/A   Mostly Cloudy
7:19 PM 3.2 °F - -2.2 °F 78% 29.97 in - North - - N/A   Mostly Cloudy
7:39 PM 1.4 °F - -4.0 °F 78% 29.97 in - North - - N/A   Mostly Cloudy
7:59 PM 1.4 °F - -4.0 °F 78% 29.99 in - North - - N/A   Scattered Clouds
8:19 PM 1.4 °F - -4.0 °F 78% 29.99 in - North - - N/A   Mostly Cloudy
8:39 PM 1.4 °F - -4.0 °F 78% 30.00 in - North - - N/A   Mostly Cloudy
8:59 PM -0.4 °F - -5.8 °F 78% 30.01 in - North - - N/A   Scattered Clouds
9:19 PM -0.4 °F - -5.8 °F 78% 30.01 in - North - - N/A   Clear
9:39 PM -0.4 °F - -7.6 °F 72% 29.99 in - North - - N/A   Clear
9:59 PM -2.2 °F - -7.6 °F 78% 29.99 in - North - - N/A   Clear
10:19 PM -2.2 °F - -7.6 °F 78% 30.00 in - North - - N/A   Clear
10:39 PM -2.2 °F - -7.6 °F 78% 30.01 in - North - - N/A   Clear
10:59 PM -2.2 °F - -7.6 °F 78% 30.01 in - North - - N/A   Clear
11:19 PM -2.2 °F - -7.6 °F 78% 30.00 in - North - - N/A   Clear
11:39 PM -2.2 °F - -7.6 °F 78% 30.01 in - North - - N/A   Clear
11:59 PM -2.2 °F - -9.4 °F 71% 30.01 in - North - - N/A   Clear